Notices

What's New in latest Release from April 7th, 2021:

- Updated Glossary, including Speed of Maximum Gust, and Total Hourly Precipitation

- Updated national and regional climate services offices contacts and prices information

- Addition of station inventory lists for 1981-2010, 1971-2000, and 1961-1990 Normals.

If you haven't already, please take our survey and provide feedback about our website: https://eccc.sondage-survey.ca/f/LanguageSelection.aspx?s=442ca660-fcf1-47c0-95a9-59707d6fd709

Hourly Data Report for January 26, 2021

SHEARWATER RCS
NOVA SCOTIA
Current Station Operator: ECCC - MSC

44°37'47.000" N
63°30'48.000" W
24.00 m
8205092
71264
AAW

Download Data

Hourly Data (January 2021)
Hourly Data Report for January 26, 2021
TIME
LST
Temp Definition
°C
Dew Point Definition
°C
Rel Hum Definition
%
Precip. Amount Definition
mm

Wind Dir Definition
10's deg

Wind Spd Definition
km/h
Visibility Definition
km
Stn Press Definition
kPa
Hmdx Definition


Wind Chill Definition


Weather Definition


00:00 -1.3 -4.6 78 0.0 31 17   100.42   -6 LegendNANA
01:00 -1.2 -4.0 81 0.0 31 15   100.47   -6 LegendNANA
02:00 -1.0 -3.6 83 0.0 31 18   100.51   -6 LegendNANA
03:00 -0.8 -3.5 82 0.0 31 14   100.54   -5 LegendNANA
04:00 -0.8 -3.2 84 0.0 30 15   100.56   -5 LegendNANA
05:00 -0.8 -3.3 83 0.0 31 15   100.63   -5 LegendNANA
06:00 -0.8 -3.4 83 0.0 32 16   100.69   -6 LegendNANA
07:00 -1.0 -3.4 84 0.0 31 14   100.73   -5 LegendNANA
08:00 -1.1 -3.4 85 0.0 32 17   100.80   -6 LegendNANA
09:00 -0.1 -3.1 80 0.0 32 23   100.87   -6 LegendNANA
10:00 0.9 -2.7 77 0.0 32 16   100.95     LegendNANA
11:00 1.6 -2.7 73 0.0 32 20   100.99     LegendNANA
12:00 2.5 -2.2 71 0.0 31 19   100.96     LegendNANA
13:00 3.0 -2.3 68 0.0 33 19   100.95     LegendNANA
14:00 3.3 -1.6 70 0.0 34 21   100.94     LegendNANA
15:00 3.1 -1.2 73 0.0 33 20   101.06     LegendNANA
16:00 2.6 -0.8 78 0.0 33 16   101.09     LegendNANA
17:00 1.6 -1.2 82 0.0 34 12   101.09     LegendNANA
18:00 0.8 -1.7 83 0.0 34 14   101.10     LegendNANA
19:00 0.3 -1.8 86 0.0 34 10   101.14     LegendNANA
20:00 0.4 -1.7 86 0.0 33 10   101.22     LegendNANA
21:00 0.1 -1.8 87 0.0 35 10   101.22     LegendNANA
22:00 -0.5 -1.9 90 0.0 35 11   101.21   -4 LegendNANA
23:00 -0.6 -2.2 89 0.0 36 9   101.21   -4 LegendNANA

Notes on Data Quality.

Legend

  • E = Estimated
  • M = Missing
  • NA = Not Available*
  • [empty] = Indicates an unobserved value
Date modified: